EHI
0 0 0 0 0 0 0 0 0 0 0 0 0 0 0 0 0 0 0 0 0 0 0 0 0 0 0 0 0 0 0 0 0 0 0 0 0 0 0 0 0 0 0 0
0 0 0 0 0 0 0 0 0 0 0 0 0 0 0 0 0 0 0 0 0 0 0 0 0 0 0 0 0 0 0 0 0 0 0 0 0 0 0 0 0 0 0 0
0 0 0 0 0 0 0 0 0 0 0 0 0 0 0 0 0 0 0 0 0 0 0 0 0 0 0 0 0 0 0 0 0 0 0 0 0 0 0 0 0 0 0 0
0 0 0 0 0 0 0 0 0 0 0 0 0 0 0 0 0 0 0 0 0 0 0 0 0 0 0 0 0 0 0 0 0 1 0 0 0 0 0 0 0 0 0 0
0 0 0 0 0 0 0 0 0 0 0 0 0 0 0 0 0 0 0 0 0 0 0 0 0 0 0 0 0 0 0 0 0 0 0 0 0 0 0 0 0 0 0 0
0 0 0 0 0 0 0 0 0 0 0 0 0 0 0 0 0 0 0 0 0 0 0 0 0 0 0 0 0 0 0 0 0 0 0 0 0 0 0 0 0 0 0 0
0 0 0 0 0 0 0 0 0 0 0 0 0 0 0 0 0 0 0 0 0 0 0 0 0 0 0 0 0 0 0 0 0 0 0 0 0 0 0 0 0 0 0 0
0 0 0 0 0 0 0 0 0 0 0 0 0 0 0 0 0 0 0 0 0 0 0 0 0 0 0 0 0 0 0 0 0 0 0 0 0 0 0 0 0 0 0 0
0 0 0 0 0 0 0 0 0 0 0 0 0 0 0 0 0 0 0 0 0 0 0 0 0 0 0 0 0 0 0 0 0 0 0 0 0 0 0 0 0 0 0 0
0 0 0 0 0 0 0 0 0 0 0 0 0 0 0 0 0 0 0 0 0 0 0 0 0 0 0 0 0 0 0 0 0 0 0 0 0 0 0 0 0 0 0 0
0 0 0 0 0 0 0 0 0 0 0 0 0 0 0 0 0 0 0 0 0 0 0 0 0 0 0 0 0 0 0 0 0 0 0 0 0 0 0 0 0 0 0 0
0 0 0 0 0 0 0 0 0 0 0 0 0 0 0 0 0 0 0 0 0 0 0 0 0 0 0 0 0 0 0 0 0 0 0 0 0 0 0 0 0 0 0 0
0 0 0 0 0 0 0 0 0 0 0 0 0 0 0 0 0 0 0 0 0 0 0 0 0 0 0 0 0 0 0 0 0 0 0 0 0 0 0 0 0 0 0 0
0 0 0 0 0 0 0 0 0 0 0 0 0 0 0 0 0 0 0 0 0 0 0 0 0 0 0 0 0 0 0 0 0 0 0 0 0 0 0 0 0 0 0 0
0 0 0 0 0 0 0 0 0 0 0 0 0 0 0 0 0 0 0 0 0 0 0 0 0 0 0 0 0 0 0 0 0 0 0 0 0 0 0 0 0 0 0 0
0 0 0 0 0 0 0 0 0 0 0 0 0 0 0 0 0 0 0 0 0 0 0 0 0 0 0 0 0 0 0 0 0 0 0 0 0 0 0 0 0 0 0 0
0 0 0 0 0 0 0 0 0 0 0 0 0 0 0 0 0 0 0 0 0 0 0 0 0 0 0 0 0 0 0 0 0 0 0 0 0 0 0 0 0 0 0 0
0 0 0 0 0 0 0 0 0 0 0 0 0 0 0 0 0 0 0 0 0 0 0 0 0 0 0 0 0 0 0 0 0 0 0 0 0 0 0 0 0 0 0 0
0 0 0 0 0 0 0 0 0 0 0 0 0 0 0 0 0 0 0 0 0 0 0 0 0 0 0 0 0 0 0 0 0 0 0 0 0 0 0 0 0 0 0 0
0 0 0 0 0 0 0 0 0 0 0 0 0 0 0 0 0 0 0 0 0 0 0 0 0 0 0 0 0 0 0 0 0 0 0 0 0 0 0 0 0 0 0 0
0 0 0 0 0 0 0 0 0 0 0 0 0 0 0 0 0 0 0 0 0 0 0 0 0 0 0 0 0 0 0 0 0 0 0 0 0 0 0 0 0 0 0 0
0 0 0 0 0 0 0 0 0 0 0 0 0 0 0 0 0 0 0 0 0 0 0 0 0 0 0 0 0 0 0 0 0 0 0 0 0 0 0 0 0 0 0 0
0 0 0 0 0 0 0 0 0 0 0 0 0 0 0 0 0 0 0 0 0 0 0 0 0 0 0 0 0 0 0 0 0 0 0 0 0 0 0 0 0 0 0 0
0 0 0 0 0 0 0 0 0 0 0 0 0 0 0 0 0 0 0 0 0 0 0 0 0 0 0 0 0 0 0 0 0 0 0 0 0 0 0 0 0 0 0 0
0 0 0 0 0 0 0 0 0 0 0 0 0 0 0 0 0 0 0 0 0 0 0 0 0 0 0 0 0 0 0 0 0 0 0 0 0 0 0 0 0 0 0 0
0 0 0 0 0 0 0 0 0 0 0 0 0 0 0 0 0 0 0 0 0 0 0 0 0 0 0 0 0 0 0 0 0 0 0 0 0 0 0 0 0 0 0 0
0 0 0 0 0 0 0 0 0 0 0 0 0 0 0 0 0 0 0 0 0 0 0 0 0 0 0 0 0 0 0 0 0 0 0 0 0 0 0 0 0 0 0 0
Wind_Speed
6 7 5 5 6 5 6 6 5 6 5 5 4 4 3 3 4 4 4 4 4 4 3 3 3 3 3 2 2 1 1 1 1 1 1 1 2 2 2 2 2 2 2 1
5 5 5 7 7 7 7 7 8 8 9 5 4 3 3 3 3 3 4 4 4 4 3 3 3 3 2 2 2 2 2 1 1 1 1 2 2 2 2 2 2 2 2 1
4 2 4 6 6 6 5 4 5 8 8 4 3 3 3 3 3 3 3 4 4 4 3 3 3 3 2 2 2 2 2 2 2 1 2 2 2 2 2 2 2 2 2 1
3 3 5 5 0 2 4 6 6 6 5 5 4 4 3 2 2 3 3 3 3 3 3 2 2 2 2 2 2 2 2 2 2 2 2 2 2 2 2 1 2 2 2 1
2 3 7 3 1 1 2 5 4 5 6 4 4 4 3 2 2 2 2 2 2 2 2 1 2 2 1 1 2 2 2 2 2 2 2 2 2 2 1 1 1 1 1 1
3 3 6 3 1 1 1 5 2 2 4 4 3 3 4 4 3 3 3 2 2 2 1 1 1 2 2 1 2 2 2 2 2 2 2 2 2 2 1 1 1 1 1 1
5 5 7 2 1 2 2 5 3 3 3 3 2 4 3 4 4 3 3 3 2 2 1 1 2 2 2 2 2 1 2 2 2 2 2 1 1 1 1 1 1 1 1 1
4 5 8 2 3 4 5 2 3 4 3 2 3 3 3 3 3 3 3 3 3 2 1 1 2 2 1 1 1 1 2 2 2 1 1 1 1 1 1 1 2 1 1 1
7 7 3 4 3 3 2 2 3 3 3 3 3 3 4 3 3 2 3 3 2 2 1 2 2 1 1 1 1 1 1 1 1 1 1 1 1 1 1 1 1 1 1 1
5 6 5 4 4 3 3 3 2 2 2 2 3 4 4 3 3 2 2 2 2 2 1 1 1 1 0 1 1 1 1 1 1 1 1 1 1 1 1 1 1 1 1 0
6 6 5 4 5 4 2 2 2 3 2 2 2 3 3 3 3 2 2 2 1 1 1 1 1 1 1 0 1 1 1 1 1 1 1 1 1 1 0 0 1 1 1 1
7 5 4 3 2 2 2 3 3 2 2 2 2 3 3 3 2 2 2 2 1 1 1 1 1 1 1 0 1 1 1 0 0 0 0 1 1 1 3 1 2 2 1 1
5 2 2 3 2 2 2 3 2 2 2 2 2 2 2 3 2 2 2 2 1 1 1 1 1 1 1 1 1 1 0 0 0 0 0 0 0 0 1 2 3 3 2 2
3 2 4 4 3 2 2 2 1 1 2 2 1 1 1 2 2 2 2 2 1 1 1 0 1 1 1 0 1 0 0 0 0 0 0 0 0 0 0 0 0 1 2 2
4 4 4 3 1 1 1 1 1 1 1 1 1 1 1 2 2 3 2 1 1 1 1 0 1 1 1 0 0 0 1 1 1 1 0 0 0 0 0 0 0 0 0 1
3 2 3 3 3 3 2 2 2 2 2 1 1 2 2 2 2 2 1 1 1 1 1 1 1 1 1 0 0 0 0 1 0 0 0 0 0 0 0 0 0 0 0 0
3 4 4 4 4 3 3 3 3 2 2 2 2 2 1 1 1 2 1 1 1 1 1 1 1 1 0 0 0 0 0 0 0 0 1 1 0 0 1 1 1 0 0 1
3 4 3 4 3 3 3 2 2 2 2 2 1 1 1 2 2 2 2 1 1 1 1 1 0 0 0 0 0 0 0 0 0 0 0 1 1 1 1 1 1 1 0 0
2 2 2 2 2 2 2 2 2 2 2 2 2 2 2 2 2 1 1 1 1 1 2 1 1 1 0 0 0 0 1 1 0 0 0 1 0 0 1 1 1 1 1 0
1 1 2 1 1 1 2 2 2 1 1 1 1 1 1 2 1 1 1 1 2 2 1 1 0 0 0 1 1 0 0 1 1 1 1 1 1 1 1 1 1 1 1 1
1 1 2 2 1 1 2 2 2 2 2 2 2 2 2 2 1 1 1 1 1 1 0 0 0 0 0 0 0 0 0 0 0 1 1 1 1 1 1 1 1 1 1 1
1 1 2 2 1 1 1 1 2 2 2 2 2 2 1 1 1 1 1 2 1 1 0 0 0 0 0 0 0 0 0 0 0 0 1 1 1 1 1 1 1 1 1 1
2 2 2 2 2 1 1 1 1 2 2 2 2 2 2 2 1 1 1 1 0 0 1 0 0 0 1 1 1 0 0 0 0 0 0 0 1 1 1 1 1 1 1 1
2 2 2 1 1 1 1 1 1 1 2 2 2 2 2 1 1 0 0 0 0 1 1 0 1 1 1 1 1 1 0 0 0 0 0 0 0 0 0 1 1 1 1 1
2 2 2 2 2 2 2 2 1 1 1 1 1 1 1 1 1 0 1 1 0 1 1 0 1 2 1 1 1 1 0 0 0 0 0 0 0 0 0 1 1 1 1 1
2 2 2 3 2 2 2 2 2 2 2 1 1 1 1 1 1 1 1 1 1 1 1 1 1 1 1 1 1 1 1 1 1 1 0 0 0 0 0 1 1 1 1 1
2 2 1 1 1 2 2 2 2 2 2 2 1 1 1 1 1 1 1 1 1 1 1 1 1 1 1 1 1 1 1 1 1 1 1 0 0 0 0 0 0 1 1 1
Wind_Direction
268 276 273 260 258 240 229 238 248 279 284 293 314 322 334 344 346 352 357 1 357 356 356 1 3 4 8 20 32 34 55 55 41 35 43 55 82 79 87 85 76 92 100 104
280 251 254 267 263 244 240 247 257 277 283 288 304 326 336 340 337 332 336 341 342 346 354 357 354 354 8 25 31 45 53 42 32 43 50 54 73 77 83 82 79 81 86 96
279 310 313 271 243 225 229 232 232 249 264 306 310 311 316 320 317 312 322 330 331 334 341 344 345 350 9 23 35 49 50 38 30 38 58 57 69 73 76 83 93 96 89 95
285 327 255 241 173 192 223 247 243 259 285 303 299 301 314 311 311 321 324 320 319 325 336 344 348 357 21 33 51 50 48 43 31 36 46 50 69 74 64 70 86 90 93 94
259 268 271 252 228 164 224 276 254 256 281 302 320 326 331 353 354 328 322 318 319 318 326 344 357 20 37 52 55 46 41 37 26 37 42 41 53 64 63 73 74 77 89 98
239 250 257 255 111 86 79 279 284 268 283 300 329 303 289 336 341 338 345 345 341 337 1 23 43 49 47 60 64 39 24 31 30 34 40 34 35 56 57 75 80 79 68 74
232 243 264 259 159 117 186 258 316 313 296 307 286 267 300 334 341 349 351 348 356 358 47 63 71 61 48 60 54 27 32 41 42 40 41 32 33 54 62 69 78 76 67 51
204 225 250 157 138 190 228 296 321 320 319 312 299 308 325 330 335 347 348 350 358 10 30 45 68 75 56 50 31 34 45 47 47 40 30 32 61 63 66 88 96 85 81 59
201 218 231 175 203 228 273 292 308 317 324 316 310 312 318 319 324 334 338 341 354 0 19 39 46 63 54 17 45 48 61 54 43 34 40 45 87 104 102 108 119 119 98 74
252 257 252 233 241 258 265 271 296 313 318 316 306 307 313 314 319 327 333 337 348 359 19 15 20 17 358 344 65 76 71 66 52 45 41 31 74 85 97 138 140 130 134 132
247 267 278 250 235 249 271 296 306 311 312 297 294 298 303 308 310 315 321 325 334 343 345 333 351 346 321 342 77 79 79 85 59 55 69 39 44 39 49 155 168 169 181 183
232 230 217 253 239 224 243 267 279 292 307 311 289 285 296 300 303 306 311 316 327 334 322 311 331 325 332 13 93 101 71 61 60 70 60 72 69 38 32 28 28 31 19 319
237 266 257 269 278 242 238 258 268 267 264 281 292 291 295 297 300 306 308 307 298 295 300 307 332 335 339 19 82 105 141 253 18 22 35 101 100 90 35 31 34 37 37 24
238 252 265 261 263 254 241 250 259 263 265 264 273 289 294 299 305 305 299 285 281 288 296 286 332 326 323 28 100 128 186 252 247 229 182 169 172 215 202 165 30 9 28 43
233 226 238 255 257 248 222 209 244 270 276 285 277 279 285 289 289 290 289 289 295 296 293 322 317 312 322 25 101 194 228 208 177 161 157 179 197 231 221 206 144 88 58 58
224 231 236 246 251 249 238 228 232 247 251 260 274 275 276 279 287 299 299 270 240 270 281 278 284 298 321 9 348 271 245 216 192 143 141 157 196 205 184 158 159 157 159 133
199 225 227 241 248 249 237 230 228 234 241 244 250 267 289 299 304 305 308 295 255 270 270 257 267 303 339 256 225 241 202 176 194 147 169 181 206 201 184 181 191 212 212 213
212 223 223 230 235 238 240 232 227 230 235 237 243 251 253 248 258 279 304 324 332 319 302 278 283 343 318 241 221 230 174 145 157 199 193 198 209 194 177 186 201 219 219 225
221 226 228 228 223 213 222 228 228 227 225 210 212 231 243 246 251 273 299 287 258 277 292 300 349 32 13 301 325 227 163 156 160 212 218 214 229 183 183 199 206 197 195 219
219 204 196 212 214 199 216 227 221 231 228 201 199 215 243 256 252 254 263 259 253 253 262 260 52 39 303 269 320 14 163 181 188 207 211 194 195 208 206 208 210 197 195 226
224 215 204 206 216 220 214 214 208 221 226 199 197 214 233 255 257 235 232 268 286 272 268 330 58 333 289 291 335 22 358 191 192 212 218 213 207 214 208 205 206 203 207 218
215 210 206 199 203 236 241 216 206 210 211 208 208 208 214 236 250 257 245 239 253 282 20 116 242 264 333 52 67 67 57 31 272 221 209 204 204 210 211 204 200 210 214 207
216 211 201 199 207 225 254 234 212 204 207 208 205 206 212 223 220 217 263 264 216 23 43 56 355 47 46 56 72 86 81 70 23 292 213 189 196 198 204 213 207 197 188 183
213 209 202 196 177 176 220 245 226 211 205 209 209 201 196 203 249 248 205 171 67 37 53 360 34 42 47 53 64 61 63 60 41 27 93 190 209 198 203 200 187 168 162 160
207 202 196 189 193 206 208 192 177 189 187 189 196 199 200 195 189 165 98 108 85 43 39 20 41 33 44 63 68 63 56 81 118 134 144 139 197 212 218 189 179 169 168 171
207 208 208 209 206 197 180 175 183 187 176 173 179 169 150 122 120 115 106 110 104 51 39 33 43 42 51 58 56 49 43 5 354 16 52 75 165 252 232 181 175 172 173 173
200 200 193 201 208 192 183 179 180 184 179 172 163 146 135 123 112 105 100 89 72 57 52 48 50 51 53 56 55 48 38 23 21 31 28 24 7 315 287 199 170 174 178 179